Year,Month,Day,Hour,Minute,Value (Times are PST for temperature in C)
2018,04,19,10,02,8.60
2018,04,19,10,03,8.70
2018,04,19,10,04,8.60
2018,04,19,10,05,8.70
2018,04,19,10,06,8.60
2018,04,19,10,07,8.60
2018,04,19,10,08,8.70
2018,04,19,10,09,8.70
2018,04,19,10,10,8.70
2018,04,19,10,11,8.70
2018,04,19,10,12,8.70
2018,04,19,10,13,8.70
2018,04,19,10,14,8.70
2018,04,19,10,15,8.70
2018,04,19,10,16,8.70
2018,04,19,10,17,8.70
2018,04,19,10,18,8.70
2018,04,19,10,19,8.70
2018,04,19,10,20,8.70
2018,04,19,10,21,8.80
2018,04,19,10,22,8.80
2018,04,19,10,23,8.80
2018,04,19,10,24,8.80
2018,04,19,10,25,8.80
2018,04,19,10,26,8.90
2018,04,19,10,27,8.90
2018,04,19,10,28,8.90
2018,04,19,10,29,8.90
2018,04,19,10,30,8.90
2018,04,19,10,31,8.90
2018,04,19,10,32,9.00
2018,04,19,10,33,9.10
2018,04,19,10,34,9.10
2018,04,19,10,35,9.20
2018,04,19,10,36,9.20
2018,04,19,10,37,9.20
2018,04,19,10,38,9.20
2018,04,19,10,39,9.20
2018,04,19,10,40,9.30
2018,04,19,10,41,9.30
2018,04,19,10,42,9.30
2018,04,19,10,43,9.40
2018,04,19,10,44,9.40
2018,04,19,10,45,9.50
2018,04,19,10,46,9.50
2018,04,19,10,47,9.60
2018,04,19,10,48,9.60
2018,04,19,10,49,9.70
2018,04,19,10,50,9.70
2018,04,19,10,51,9.80
2018,04,19,10,52,9.80
2018,04,19,10,53,9.90
2018,04,19,10,54,9.90
2018,04,19,10,55,9.90
2018,04,19,10,56,10.00
2018,04,19,10,57,10.00
2018,04,19,10,58,10.10
2018,04,19,10,59,10.10
2018,04,19,11,00,10.10
2018,04,19,11,01,10.10
2018,04,19,11,02,10.10
2018,04,19,11,03,10.20
2018,04,19,11,04,10.20
2018,04,19,11,05,10.30
2018,04,19,11,06,10.30
2018,04,19,11,07,10.30
2018,04,19,11,08,10.30
2018,04,19,11,09,10.30
2018,04,19,11,10,10.30
2018,04,19,11,11,10.30
2018,04,19,11,12,10.20
2018,04,19,11,13,10.20
2018,04,19,11,14,10.20
2018,04,19,11,15,10.20
2018,04,19,11,16,10.20
2018,04,19,11,17,10.30
2018,04,19,11,18,10.30
2018,04,19,11,19,10.30
2018,04,19,11,20,10.40
2018,04,19,11,21,10.50
2018,04,19,11,22,10.50
2018,04,19,11,23,10.60
2018,04,19,11,24,10.60
2018,04,19,11,25,10.60
2018,04,19,11,26,10.60
2018,04,19,11,27,10.60
2018,04,19,11,28,10.60
2018,04,19,11,29,10.60
2018,04,19,11,30,10.60
2018,04,19,11,31,10.60
2018,04,19,11,32,10.60
2018,04,19,11,33,10.60
2018,04,19,11,34,10.50
2018,04,19,11,35,10.50
2018,04,19,11,36,10.50
2018,04,19,11,37,10.50
2018,04,19,11,38,10.50
2018,04,19,11,39,10.50
2018,04,19,11,40,10.60
2018,04,19,11,41,10.60
2018,04,19,11,42,10.70
2018,04,19,11,43,10.70
2018,04,19,11,44,10.70
2018,04,19,11,45,10.70
2018,04,19,11,46,10.60
2018,04,19,11,47,10.60
2018,04,19,11,48,10.50
2018,04,19,11,49,10.50
2018,04,19,11,50,10.50
2018,04,19,11,51,10.50
2018,04,19,11,52,10.60
2018,04,19,11,53,10.60
2018,04,19,11,54,10.70
2018,04,19,11,55,10.80
2018,04,19,11,56,10.80
2018,04,19,11,57,10.80
2018,04,19,11,58,10.80
2018,04,19,11,59,10.80
2018,04,19,12,00,10.80
2018,04,19,12,01,10.80
2018,04,19,12,02,10.80
2018,04,19,12,03,10.70
2018,04,19,12,04,10.70
2018,04,19,12,05,10.70
2018,04,19,12,06,10.70
2018,04,19,12,07,10.70
2018,04,19,12,08,10.80
2018,04,19,12,09,10.80
2018,04,19,12,10,10.80
2018,04,19,12,11,10.80
2018,04,19,12,12,10.70
2018,04,19,12,13,10.70
2018,04,19,12,14,10.80
2018,04,19,12,15,10.80
2018,04,19,12,16,10.80
2018,04,19,12,17,10.80
2018,04,19,12,18,10.90
2018,04,19,12,19,10.90
2018,04,19,12,20,10.90
2018,04,19,12,21,10.90
2018,04,19,12,22,11.00
2018,04,19,12,23,11.00
2018,04,19,12,24,11.10
2018,04,19,12,25,11.10
2018,04,19,12,26,11.10
2018,04,19,12,27,11.10
2018,04,19,12,28,11.20
2018,04,19,12,29,11.10
2018,04,19,12,30,11.10
2018,04,19,12,31,11.10
2018,04,19,12,32,11.00
2018,04,19,12,33,11.00
2018,04,19,12,34,11.00
2018,04,19,12,35,11.00
2018,04,19,12,36,10.90
2018,04,19,12,37,10.90
2018,04,19,12,38,10.90
2018,04,19,12,39,10.90
2018,04,19,12,40,11.00
2018,04,19,12,41,11.00
2018,04,19,12,42,10.90
2018,04,19,12,43,11.00
2018,04,19,12,44,11.10
2018,04,19,12,45,11.20
2018,04,19,12,46,11.20
2018,04,19,12,47,11.20
2018,04,19,12,48,11.10
2018,04,19,12,49,11.00
2018,04,19,12,50,11.00
2018,04,19,12,51,11.00
2018,04,19,12,52,11.10
2018,04,19,12,53,11.10
2018,04,19,12,54,11.20
2018,04,19,12,55,11.20
2018,04,19,12,56,11.20
2018,04,19,12,57,11.20
2018,04,19,12,58,11.30
2018,04,19,12,59,11.20
2018,04,19,13,00,11.20
2018,04,19,13,01,11.10
2018,04,19,13,02,11.10
2018,04,19,13,03,11.00
2018,04,19,13,04,10.90
2018,04,19,13,05,10.90
2018,04,19,13,06,10.90
2018,04,19,13,07,10.90
2018,04,19,13,08,10.90
2018,04,19,13,09,10.90
2018,04,19,13,10,10.90
2018,04,19,13,11,11.00
2018,04,19,13,12,11.00
2018,04,19,13,13,11.10
2018,04,19,13,14,11.20
2018,04,19,13,15,11.20
2018,04,19,13,16,11.20
2018,04,19,13,17,11.30
2018,04,19,13,18,11.20
2018,04,19,13,19,11.20
2018,04,19,13,20,11.20
2018,04,19,13,21,11.20
2018,04,19,13,22,11.20
2018,04,19,13,23,11.20
2018,04,19,13,24,11.10
2018,04,19,13,25,11.10
2018,04,19,13,26,11.10
2018,04,19,13,27,11.00
2018,04,19,13,28,11.00
2018,04,19,13,29,11.00
2018,04,19,13,30,11.10
2018,04,19,13,31,11.00
2018,04,19,13,32,11.00
2018,04,19,13,33,11.00
2018,04,19,13,34,10.90
2018,04,19,13,35,10.90
2018,04,19,13,36,10.80
2018,04,19,13,37,10.80
2018,04,19,13,38,10.80
2018,04,19,13,39,10.80
2018,04,19,13,40,10.80
2018,04,19,13,41,10.90
2018,04,19,13,42,11.00
2018,04,19,13,43,11.10
2018,04,19,13,44,11.20
2018,04,19,13,45,11.20
2018,04,19,13,46,11.20
2018,04,19,13,47,11.30
2018,04,19,13,48,11.30
2018,04,19,13,49,11.30
2018,04,19,13,50,11.30
2018,04,19,13,51,11.30
2018,04,19,13,52,11.30
2018,04,19,13,53,11.30
2018,04,19,13,54,11.30
2018,04,19,13,55,11.30
2018,04,19,13,56,11.30
2018,04,19,13,57,11.30
2018,04,19,13,58,11.20
2018,04,19,13,59,11.20
2018,04,19,14,00,11.20
2018,04,19,14,01,11.30
2018,04,19,14,02,11.40
2018,04,19,14,03,11.40
2018,04,19,14,04,11.40
2018,04,19,14,05,11.50
2018,04,19,14,06,11.40
2018,04,19,14,07,11.40
2018,04,19,14,08,11.50
2018,04,19,14,09,11.50
2018,04,19,14,10,11.50
2018,04,19,14,11,11.60
2018,04,19,14,12,11.60
2018,04,19,14,13,11.60
2018,04,19,14,14,11.60
2018,04,19,14,15,11.60
2018,04,19,14,16,11.60
2018,04,19,14,17,11.60
2018,04,19,14,18,11.60
2018,04,19,14,19,11.50
2018,04,19,14,20,11.40
2018,04,19,14,21,11.40
2018,04,19,14,22,11.40
2018,04,19,14,23,11.40
2018,04,19,14,24,11.40
2018,04,19,14,25,11.40
2018,04,19,14,26,11.40
2018,04,19,14,27,11.30
2018,04,19,14,28,11.30
2018,04,19,14,29,11.30
2018,04,19,14,30,11.30
2018,04,19,14,31,11.30
2018,04,19,14,32,11.40
2018,04,19,14,33,11.50
2018,04,19,14,34,11.50
2018,04,19,14,35,11.60
2018,04,19,14,36,11.60
2018,04,19,14,37,11.70
2018,04,19,14,38,11.70
2018,04,19,14,39,11.70
2018,04,19,14,40,11.70
2018,04,19,14,41,11.70
2018,04,19,14,42,11.50
2018,04,19,14,43,11.50
2018,04,19,14,44,11.40
2018,04,19,14,45,11.40
2018,04,19,14,46,11.40
2018,04,19,14,47,11.30
2018,04,19,14,48,11.30
2018,04,19,14,49,11.30
2018,04,19,14,50,11.40
2018,04,19,14,51,11.40
2018,04,19,14,52,11.40
2018,04,19,14,53,11.40
2018,04,19,14,54,11.50
2018,04,19,14,55,11.50
2018,04,19,14,56,11.60
2018,04,19,14,57,11.50
2018,04,19,14,58,11.40
2018,04,19,14,59,11.40
2018,04,19,15,00,11.30
2018,04,19,15,01,11.30
2018,04,19,15,02,11.30
2018,04,19,15,03,11.30
2018,04,19,15,04,11.40
2018,04,19,15,05,11.50
2018,04,19,15,06,11.50
2018,04,19,15,07,11.50
2018,04,19,15,08,11.50
2018,04,19,15,09,11.60
2018,04,19,15,10,11.60
2018,04,19,15,11,11.70
2018,04,19,15,12,11.70
2018,04,19,15,13,11.70
2018,04,19,15,14,11.60
2018,04,19,15,15,11.60
2018,04,19,15,16,11.60
2018,04,19,15,17,11.60
2018,04,19,15,18,11.60
2018,04,19,15,19,11.50
2018,04,19,15,20,11.50
2018,04,19,15,21,11.40
2018,04,19,15,22,11.30
2018,04,19,15,23,11.30
2018,04,19,15,24,11.30
2018,04,19,15,25,11.30
2018,04,19,15,26,11.30
2018,04,19,15,27,11.30
2018,04,19,15,28,11.30
2018,04,19,15,29,11.30
2018,04,19,15,30,11.30
2018,04,19,15,31,11.30
2018,04,19,15,32,11.30
2018,04,19,15,33,11.30
2018,04,19,15,34,11.30
2018,04,19,15,35,11.30
2018,04,19,15,36,11.30
2018,04,19,15,37,11.30
2018,04,19,15,38,11.40
2018,04,19,15,39,11.40
2018,04,19,15,40,11.50
2018,04,19,15,41,11.50
2018,04,19,15,42,11.60
2018,04,19,15,43,11.60
2018,04,19,15,44,11.50
2018,04,19,15,45,11.50
2018,04,19,15,46,11.60
2018,04,19,15,47,11.60
2018,04,19,15,48,11.70
2018,04,19,15,49,11.70
2018,04,19,15,50,11.70
2018,04,19,15,51,11.70
2018,04,19,15,52,11.60
2018,04,19,15,53,11.60
2018,04,19,15,54,11.60
2018,04,19,15,55,11.60
2018,04,19,15,56,11.60
2018,04,19,15,57,11.60
2018,04,19,15,58,11.60
2018,04,19,15,59,11.60
2018,04,19,16,00,11.60
2018,04,19,16,01,11.60
2018,04,19,16,02,11.60
2018,04,19,16,03,11.60
2018,04,19,16,04,11.60
2018,04,19,16,05,11.60
2018,04,19,16,06,11.50
2018,04,19,16,07,11.50
2018,04,19,16,08,11.50
2018,04,19,16,09,11.60
2018,04,19,16,10,11.60
2018,04,19,16,11,11.70
2018,04,19,16,12,11.80
2018,04,19,16,13,11.80
2018,04,19,16,14,11.80
2018,04,19,16,15,11.70
2018,04,19,16,16,11.60
2018,04,19,16,17,11.60
2018,04,19,16,18,11.50
2018,04,19,16,19,11.50
2018,04,19,16,20,11.40
2018,04,19,16,21,11.40
2018,04,19,16,22,11.40
2018,04,19,16,23,11.50
2018,04,19,16,24,11.50
2018,04,19,16,25,11.50
2018,04,19,16,26,11.50
2018,04,19,16,27,11.40
2018,04,19,16,28,11.50
2018,04,19,16,29,11.60
2018,04,19,16,30,11.60
2018,04,19,16,31,11.50
2018,04,19,16,32,11.50
2018,04,19,16,33,11.40
2018,04,19,16,34,11.30
2018,04,19,16,35,11.30
2018,04,19,16,36,11.20
2018,04,19,16,37,11.10
2018,04,19,16,38,11.10
2018,04,19,16,39,11.00
2018,04,19,16,40,11.00
2018,04,19,16,41,11.00
2018,04,19,16,42,11.00
2018,04,19,16,43,11.00
2018,04,19,16,44,11.10
2018,04,19,16,45,11.10
2018,04,19,16,46,11.20
2018,04,19,16,47,11.20
2018,04,19,16,48,11.20
2018,04,19,16,49,11.20
2018,04,19,16,50,11.20
2018,04,19,16,51,11.10
2018,04,19,16,52,11.10
2018,04,19,16,53,11.00
2018,04,19,16,54,10.90
2018,04,19,16,55,10.90
2018,04,19,16,56,10.80
2018,04,19,16,57,10.90
2018,04,19,16,58,10.90
2018,04,19,16,59,10.90
2018,04,19,17,00,10.90
2018,04,19,17,01,11.00
2018,04,19,17,02,11.00
2018,04,19,17,03,11.10
2018,04,19,17,04,11.10
2018,04,19,17,05,11.10
2018,04,19,17,06,11.10
2018,04,19,17,07,11.10
2018,04,19,17,08,11.00
2018,04,19,17,09,11.00
2018,04,19,17,10,11.00
2018,04,19,17,11,10.90
2018,04,19,17,12,10.90
2018,04,19,17,13,10.90
2018,04,19,17,14,10.80
2018,04,19,17,15,10.80
2018,04,19,17,16,10.80
2018,04,19,17,17,10.80
2018,04,19,17,18,10.70
2018,04,19,17,19,10.70
2018,04,19,17,20,10.70
2018,04,19,17,21,10.80
2018,04,19,17,22,10.80
2018,04,19,17,23,10.80
2018,04,19,17,24,10.80
2018,04,19,17,25,10.80
2018,04,19,17,26,10.80
2018,04,19,17,27,10.80
2018,04,19,17,28,10.80
2018,04,19,17,29,10.80
2018,04,19,17,30,10.80
2018,04,19,17,31,10.80
2018,04,19,17,32,10.80
2018,04,19,17,33,10.80
2018,04,19,17,34,10.80
2018,04,19,17,35,10.70
2018,04,19,17,36,10.70
2018,04,19,17,37,10.70
2018,04,19,17,38,10.70
2018,04,19,17,39,10.70
2018,04,19,17,40,10.60
2018,04,19,17,41,10.70
2018,04,19,17,42,10.70
2018,04,19,17,43,10.70
2018,04,19,17,44,10.70
2018,04,19,17,45,10.70
2018,04,19,17,46,10.70
2018,04,19,17,47,10.60
2018,04,19,17,48,10.60
2018,04,19,17,49,10.60
2018,04,19,17,50,10.60
2018,04,19,17,51,10.50
2018,04,19,17,52,10.50
2018,04,19,17,53,10.50
2018,04,19,17,54,10.50
2018,04,19,17,55,10.50
2018,04,19,17,56,10.50
2018,04,19,17,57,10.40
2018,04,19,17,58,10.40
2018,04,19,17,59,10.30
2018,04,19,18,00,10.30
2018,04,19,18,01,10.30
2018,04,19,18,02,10.30
2018,04,19,18,03,10.40
2018,04,19,18,04,10.40
2018,04,19,18,05,10.40
2018,04,19,18,06,10.40
2018,04,19,18,07,10.40
2018,04,19,18,08,10.50
2018,04,19,18,09,10.50
2018,04,19,18,10,10.50
2018,04,19,18,11,10.40
2018,04,19,18,12,10.40
2018,04,19,18,13,10.40
2018,04,19,18,14,10.40
2018,04,19,18,15,10.40
2018,04,19,18,16,10.40
2018,04,19,18,17,10.40
2018,04,19,18,18,10.40
2018,04,19,18,19,10.40
2018,04,19,18,20,10.40
2018,04,19,18,21,10.40
2018,04,19,18,22,10.50
2018,04,19,18,23,10.50
2018,04,19,18,24,10.50
2018,04,19,18,25,10.40
2018,04,19,18,26,10.40
2018,04,19,18,27,10.40
2018,04,19,18,28,10.40
2018,04,19,18,29,10.40
2018,04,19,18,30,10.40
2018,04,19,18,31,10.40
2018,04,19,18,32,10.40
2018,04,19,18,33,10.40
2018,04,19,18,34,10.40
2018,04,19,18,35,10.40
2018,04,19,18,36,10.30
2018,04,19,18,37,10.30
2018,04,19,18,38,10.30
2018,04,19,18,39,10.30
2018,04,19,18,40,10.30
2018,04,19,18,41,10.30
2018,04,19,18,42,10.30
2018,04,19,18,43,10.30
2018,04,19,18,44,10.40
2018,04,19,18,45,10.40
2018,04,19,18,46,10.40
2018,04,19,18,47,10.40
2018,04,19,18,48,10.40
2018,04,19,18,49,10.50
2018,04,19,18,50,10.50
2018,04,19,18,51,10.50
2018,04,19,18,52,10.50
2018,04,19,18,53,10.60
2018,04,19,18,54,10.60
2018,04,19,18,55,10.60
2018,04,19,18,56,10.50
2018,04,19,18,57,10.50
2018,04,19,18,58,10.50
2018,04,19,18,59,10.50
2018,04,19,19,00,10.50
2018,04,19,19,01,10.50
2018,04,19,19,02,10.50
2018,04,19,19,03,10.50
2018,04,19,19,04,10.50
2018,04,19,19,05,10.40
2018,04,19,19,06,10.40
2018,04,19,19,07,10.40
2018,04,19,19,08,10.40
2018,04,19,19,09,10.40
2018,04,19,19,10,10.40
2018,04,19,19,11,10.40
2018,04,19,19,12,10.40
2018,04,19,19,13,10.50
2018,04,19,19,14,10.50
2018,04,19,19,15,10.40
2018,04,19,19,16,10.40
2018,04,19,19,17,10.40
2018,04,19,19,18,10.40
2018,04,19,19,19,10.30
2018,04,19,19,20,10.30
2018,04,19,19,21,10.30
2018,04,19,19,22,10.30
2018,04,19,19,23,10.30
2018,04,19,19,24,10.30
2018,04,19,19,25,10.30
2018,04,19,19,26,10.30
2018,04,19,19,27,10.30
2018,04,19,19,28,10.30
2018,04,19,19,29,10.30
2018,04,19,19,30,10.30
2018,04,19,19,31,10.30
2018,04,19,19,32,10.30
2018,04,19,19,33,10.30
